Location: ?
(35.4996°N, 139.3166°E)
Time: 03:09:49
(UTC+00:00)

CZ-4 R/B - Pass Details

Date: 18 April 2024
Orbit: 677 x 749 km, 98.6° (Epoch: 20 May)

Event Time Altitude Azimuth Distance (km) Brightness Sun altitude
Rises 17:47:18 0° 14° (NNE) 3,079 7.9 -26.0°
Reaches altitude 10° 17:49:35 10° 16° (NNE) 2,148 7.0 -25.7°
Maximum altitude 17:54:16 79° 103° (ESE) 701 3.7 -24.9°
Enters shadow 17:54:42 71° 158° (SSE) 725 3.7 -24.8°
